"Platform","Alpena ReCON Buoy"
"NDBC ID","45162"
"Latitude (deg)",44.987
"Longitude (deg)",-83.270
"Water Depth (m)",20
"Sensor Device","System Power Controller board voltage input"
"Sensor Type","Voltage to underwater hub"
"Sensor Units","voltage"
"Measurement","A sample"
"Time means","Time at sample (UTC time zone)"

"Note:","This data was collected for research purposes."
"Note:","Minimal quality checking has been performed so data may contain known or unknown errors."
"Note:","Data provided by NOAA. Please credit NOAA."
"Note:","For more info see www.glerl.noaa.gov/res/recon"

"Time (UTC)","To U/W Hub"
"YYYY/MM/DD HH:MM","volts"
2016/05/19 13:58, 49.92
2016/05/19 14:18, 49.92
2016/05/19 14:38, 49.93
2016/05/19 14:58, 49.92
2016/05/19 15:18, 49.92
2016/05/19 15:38, 49.91
2016/05/19 15:58, 49.90
2016/05/19 16:18, 49.91
2016/05/19 16:38, 49.93
2016/05/19 16:58, 49.93
2016/05/19 17:18, 49.94
2016/05/19 17:38, 49.94
2016/05/19 17:58, 49.93
2016/05/19 18:18, 49.94
2016/05/19 18:38, 49.92
2016/05/19 18:58, 49.93
2016/05/19 19:18, 49.92
2016/05/19 19:38, 49.92
2016/05/19 19:58, 49.93
2016/05/19 20:18, 49.92
2016/05/19 20:38, 49.92
2016/05/19 20:58, 49.92
2016/05/19 21:18, 49.92
2016/05/19 21:38, 49.92
2016/05/19 21:58, 49.92
2016/05/19 22:18, 49.92
2016/05/19 22:38, 49.91
2016/05/19 22:58, 49.92
2016/05/19 23:18, 49.92
2016/05/19 23:38, 49.92
2016/05/19 23:58, 49.93
2016/05/20 00:18, 49.92
2016/05/20 00:38, 49.89
2016/05/20 00:58, 49.91
2016/05/20 01:18, 49.90
2016/05/20 01:38, 49.90
2016/05/20 01:58, 49.90
2016/05/20 02:18, 49.90
2016/05/20 02:38, 49.90
2016/05/20 02:58, 49.89
2016/05/20 03:18, 49.90
2016/05/20 03:38, 49.89
2016/05/20 03:58, 49.91
2016/05/20 04:18, 49.91
2016/05/20 04:38, 49.89
2016/05/20 04:58, 49.89
2016/05/20 05:18, 49.90
2016/05/20 05:38, 49.91
2016/05/20 05:58, 49.90
2016/05/20 06:18, 49.91
2016/05/20 06:38, 49.90
2016/05/20 06:58, 49.91
2016/05/20 07:18, 49.90
2016/05/20 07:38, 49.90
2016/05/20 07:58, 49.91
2016/05/20 08:18, 49.90
2016/05/20 08:38, 49.90
2016/05/20 08:58, 49.91
2016/05/20 09:18, 49.90
2016/05/20 09:38, 49.90
2016/05/20 09:58, 49.90
2016/05/20 10:18, 49.89
2016/05/20 10:38, 49.89
2016/05/20 10:58, 49.90
2016/05/20 11:18, 49.92
2016/05/20 11:38, 49.93
2016/05/20 11:58, 49.93
2016/05/20 12:18, 49.93
2016/05/20 12:38, 49.91
2016/05/20 12:58, 49.92
2016/05/20 13:18, 49.92
2016/05/20 13:38, 49.92
2016/05/20 13:58, 49.92
2016/05/20 14:18, 49.92
2016/05/20 14:38, 49.90
2016/05/20 14:58, 49.92
2016/05/20 15:18, 49.93
2016/05/20 15:38, 49.92
2016/05/20 15:58, 49.93
2016/05/20 16:18, 49.93
2016/05/20 16:38, 49.92
2016/05/20 16:58, 49.93
2016/05/20 17:18, 49.93
2016/05/20 17:38, 49.93
2016/05/20 17:58, 49.93
2016/05/20 18:18, 49.93
2016/05/20 18:38, 49.93
2016/05/20 18:58, 49.93
2016/05/20 19:18, 49.93
2016/05/20 19:38, 49.93
2016/05/20 19:58, 49.92
2016/05/20 20:18, 49.92
2016/05/20 20:38, 49.92
2016/05/20 20:58, 49.92
2016/05/20 21:18, 49.92
2016/05/20 21:38, 49.92
2016/05/20 21:58, 49.92
2016/05/20 22:18, 49.91
2016/05/20 22:38, 49.90
2016/05/20 22:58, 49.93
2016/05/20 23:18, 49.92
2016/05/20 23:38, 49.90
2016/05/20 23:58, 49.90
2016/05/21 00:18, 49.90
2016/05/21 00:38, 49.91
2016/05/21 00:58, 49.91
2016/05/21 01:18, 49.91
2016/05/21 01:38, 49.91
2016/05/21 01:58, 49.90
2016/05/21 02:18, 49.90
2016/05/21 02:38, 49.91
2016/05/21 02:58, 49.90
2016/05/21 03:18, 49.90
2016/05/21 03:38, 49.89
2016/05/21 03:58, 49.90
2016/05/21 04:18, 49.89
2016/05/21 04:38, 49.90
2016/05/21 04:58, 49.90
2016/05/21 05:18, 49.90
2016/05/21 05:38, 49.90
2016/05/21 05:58, 49.90
2016/05/21 06:18, 49.91
2016/05/21 06:38, 49.90
2016/05/21 06:58, 49.90
2016/05/21 07:18, 49.90
2016/05/21 07:38, 49.90
2016/05/21 07:58, 49.90
2016/05/21 08:18, 49.90
2016/05/21 08:38, 49.90
2016/05/21 08:58, 49.90
2016/05/21 09:18, 49.90
2016/05/21 09:38, 49.90
2016/05/21 09:58, 49.91
2016/05/21 10:18, 49.90
2016/05/21 10:38, 49.91
2016/05/21 10:58, 49.91
2016/05/21 11:18, 49.90
2016/05/21 11:38, 49.89
2016/05/21 11:58, 49.89
2016/05/21 12:18, 49.89
2016/05/21 12:38, 49.89
2016/05/21 12:58, 49.88
2016/05/21 13:18, 49.89
2016/05/21 13:38, 49.89
2016/05/21 13:58, 49.89
2016/05/21 14:18, 49.91
2016/05/21 14:38, 49.90
2016/05/21 14:58, 49.93
2016/05/21 15:18, 49.93
2016/05/21 15:38, 49.92
2016/05/21 15:58, 49.93
2016/05/21 16:18, 49.92
2016/05/21 16:38, 49.91
2016/05/21 16:58, 49.91
2016/05/21 17:18, 49.90
2016/05/21 17:38, 49.90
2016/05/21 17:58, 49.91
2016/05/21 18:18, 49.92
2016/05/21 18:38, 49.90
2016/05/21 18:58, 49.92
2016/05/21 19:18, 49.92
2016/05/21 19:38, 49.91
2016/05/21 19:58, 49.91
2016/05/21 20:18, 49.92
2016/05/21 20:38, 49.91
2016/05/21 20:58, 49.91
2016/05/21 21:18, 49.91
2016/05/21 21:38, 49.91
2016/05/21 21:58, 49.91
2016/05/21 22:18, 49.90
2016/05/21 22:38, 49.88
2016/05/21 22:58, 49.88
2016/05/21 23:18, 49.90
2016/05/21 23:38, 49.88
2016/05/21 23:58, 49.88
2016/05/22 00:18, 49.89
2016/05/22 00:38, 49.89
2016/05/22 00:58, 49.89
2016/05/22 01:18, 49.89
2016/05/22 01:38, 49.91
2016/05/22 01:58, 49.90
2016/05/22 02:18, 49.89
2016/05/22 02:38, 49.89
2016/05/22 02:58, 49.89
2016/05/22 03:18, 49.90
2016/05/22 03:38, 49.89
2016/05/22 03:58, 49.89
2016/05/22 04:18, 49.89
2016/05/22 04:38, 49.90
2016/05/22 04:58, 49.90
2016/05/22 05:18, 49.90
2016/05/22 05:38, 49.90
2016/05/22 05:58, 49.91
2016/05/22 06:18, 49.90
2016/05/22 06:38, 49.91
2016/05/22 06:58, 49.90
2016/05/22 07:18, 49.89
2016/05/22 07:38, 49.89
2016/05/22 07:58, 49.89
2016/05/22 08:18, 49.90
2016/05/22 08:38, 49.91
2016/05/22 08:58, 49.90
2016/05/22 09:18, 49.89
2016/05/22 09:38, 49.90
2016/05/22 09:58, 49.90
2016/05/22 10:18, 49.90
2016/05/22 10:38, 49.89
2016/05/22 10:58, 49.91
2016/05/22 11:18, 49.92
2016/05/22 11:38, 49.92
2016/05/22 11:58, 49.93
2016/05/22 12:18, 49.93
2016/05/22 12:38, 49.92
2016/05/22 12:58, 49.93
2016/05/22 13:18, 49.93
2016/05/22 13:38, 49.93
2016/05/22 13:58, 49.93
2016/05/22 14:18, 49.93
2016/05/22 14:38, 49.92
2016/05/22 14:58, 49.93
2016/05/22 15:18, 49.92
2016/05/22 15:38, 49.92
2016/05/22 15:58, 49.92
2016/05/22 16:18, 49.92
2016/05/22 16:38, 49.91
2016/05/22 16:58, 49.92
2016/05/22 17:18, 49.92
2016/05/22 17:38, 49.91
2016/05/22 17:58, 49.91
2016/05/22 18:18, 49.92
2016/05/22 18:38, 49.90
2016/05/22 18:58, 49.92
2016/05/22 19:18, 49.91
2016/05/22 19:38, 49.92
2016/05/22 19:58, 49.92
2016/05/22 20:18, 49.93
2016/05/22 20:38, 49.91
2016/05/22 20:58, 49.92
2016/05/22 21:18, 49.92
2016/05/22 21:38, 49.92
2016/05/22 21:58, 49.91
2016/05/22 22:18, 49.91
2016/05/22 22:38, 49.90
2016/05/22 22:58, 49.91
2016/05/22 23:18, 49.92
2016/05/22 23:38, 49.90
2016/05/22 23:58, 49.91
2016/05/23 00:18, 49.91
2016/05/23 00:38, 49.89
2016/05/23 00:58, 49.90
2016/05/23 01:18, 49.90
2016/05/23 01:38, 49.90
2016/05/23 01:58, 49.90
2016/05/23 02:18, 49.90
2016/05/23 02:38, 49.89
2016/05/23 02:58, 49.89
2016/05/23 03:18, 49.89
2016/05/23 03:38, 49.89
2016/05/23 03:58, 49.89
2016/05/23 04:18, 49.89
2016/05/23 04:38, 49.90
2016/05/23 04:58, 49.89
2016/05/23 05:18, 49.91
2016/05/23 05:38, 49.90
2016/05/23 05:58, 49.91
2016/05/23 06:18, 49.89
2016/05/23 06:38, 49.90
2016/05/23 06:58, 49.90
2016/05/23 07:18, 49.90
2016/05/23 07:38, 49.90
2016/05/23 07:58, 49.90
2016/05/23 08:18, 49.90
2016/05/23 08:38, 49.90
2016/05/23 08:58, 49.90
2016/05/23 09:18, 49.90
2016/05/23 09:38, 49.90
2016/05/23 09:58, 49.89
2016/05/23 10:18, 49.90
2016/05/23 10:38, 49.89
2016/05/23 10:58, 49.89
2016/05/23 11:18, 49.92
2016/05/23 11:38, 49.92
2016/05/23 11:58, 49.93
2016/05/23 12:18, 49.92
2016/05/23 12:38, 49.92
2016/05/23 12:58, 49.93
2016/05/23 13:18, 49.93
2016/05/23 13:38, 49.93
2016/05/23 13:58, 49.92
2016/05/23 14:18, 49.93
2016/05/23 14:38, 49.91
2016/05/23 14:58, 49.92
2016/05/23 15:18, 49.93
2016/05/23 15:38, 49.94
2016/05/23 15:58, 49.93
2016/05/23 16:18, 49.93
2016/05/23 16:38, 49.92
2016/05/23 16:58, 49.93
2016/05/23 17:18, 49.93
2016/05/23 17:38, 49.93
2016/05/23 17:58, 49.92
2016/05/23 18:38, 49.92
2016/05/23 18:58, 49.93
2016/05/23 19:18, 49.92
2016/05/23 19:38, 49.92
2016/05/23 19:58, 49.92
2016/05/23 20:18, 49.92
2016/05/23 20:38, 49.92
2016/05/23 20:58, 49.93
2016/05/23 21:18, 49.93
2016/05/23 21:38, 49.91
2016/05/23 21:58, 49.92
2016/05/23 22:18, 49.91
2016/05/23 22:38, 49.91
2016/05/23 22:58, 49.92
2016/05/23 23:18, 49.92
2016/05/23 23:38, 49.91
2016/05/23 23:58, 49.92
2016/05/24 00:18, 49.90
2016/05/24 00:38, 49.89
2016/05/24 00:58, 49.91
2016/05/24 01:18, 49.90
2016/05/24 01:38, 49.89
2016/05/24 01:58, 49.91
2016/05/24 02:18, 49.89
2016/05/24 02:38, 49.90
2016/05/24 02:58, 49.90
2016/05/24 03:18, 49.89
2016/05/24 03:38, 49.90
2016/05/24 03:58, 49.90
2016/05/24 04:18, 49.90
2016/05/24 04:38, 49.90
2016/05/24 04:58, 49.90
2016/05/24 05:18, 49.89
2016/05/24 05:38, 49.91
2016/05/24 05:58, 49.90
2016/05/24 06:18, 49.89
2016/05/24 06:38, 49.89
2016/05/24 06:58, 49.92
2016/05/24 07:18, 49.91
2016/05/24 07:38, 49.89
2016/05/24 07:58, 49.89
2016/05/24 08:18, 49.90
2016/05/24 08:38, 49.90
2016/05/24 08:58, 49.89
2016/05/24 09:18, 49.91
2016/05/24 09:38, 49.90
2016/05/24 09:58, 49.89
2016/05/24 10:18, 49.90
2016/05/24 10:38, 49.90
2016/05/24 10:58, 49.88
2016/05/24 11:18, 49.88
2016/05/24 11:38, 49.91
2016/05/24 11:58, 49.92
2016/05/24 12:18, 49.93
2016/05/24 12:38, 49.92
2016/05/24 12:58, 49.92
2016/05/24 13:18, 49.93
2016/05/24 13:38, 49.93
2016/05/24 13:58, 49.93
2016/05/24 14:18, 49.92
2016/05/24 14:38, 49.92
2016/05/24 14:58, 49.92
2016/05/24 15:18, 49.92
2016/05/24 15:38, 49.92
2016/05/24 15:58, 49.93
2016/05/24 16:18, 49.93
2016/05/24 16:38, 49.91
2016/05/24 16:58, 49.91
2016/05/24 17:18, 49.92
2016/05/24 17:38, 49.92
2016/05/24 17:58, 49.91
2016/05/24 18:18, 49.92
2016/05/24 18:38, 49.92
2016/05/24 18:58, 49.92
2016/05/24 19:18, 49.92
2016/05/24 19:38, 49.92
2016/05/24 19:58, 49.91
2016/05/24 20:18, 49.91
2016/05/24 20:38, 49.90
2016/05/24 20:58, 49.92
2016/05/24 21:18, 49.91
2016/05/24 21:38, 49.92
2016/05/24 21:58, 49.91
2016/05/24 22:18, 49.91
2016/05/24 22:38, 49.91
2016/05/24 22:58, 49.91
2016/05/24 23:18, 49.89
2016/05/24 23:38, 49.88
2016/05/24 23:58, 49.88
2016/05/25 00:18, 49.89
2016/05/25 00:38, 49.90
2016/05/25 00:58, 49.89
2016/05/25 01:18, 49.89
2016/05/25 01:38, 49.89
2016/05/25 01:58, 49.89
2016/05/25 02:18, 49.89
2016/05/25 02:38, 49.90
2016/05/25 02:58, 49.89
2016/05/25 03:18, 49.90
2016/05/25 03:38, 49.89
2016/05/25 03:58, 49.90
2016/05/25 04:18, 49.90
2016/05/25 04:38, 49.90
2016/05/25 04:58, 49.90
2016/05/25 05:18, 49.91
2016/05/25 05:38, 49.89
2016/05/25 05:58, 49.89
2016/05/25 06:18, 49.89
2016/05/25 06:38, 49.90
2016/05/25 06:58, 49.90
2016/05/25 07:18, 49.89
2016/05/25 07:38, 49.90
2016/05/25 07:58, 49.90
2016/05/25 08:18, 49.90
2016/05/25 08:38, 49.89
2016/05/25 08:58, 49.90
2016/05/25 09:18, 49.89
2016/05/25 09:38, 49.90
2016/05/25 09:58, 49.89
2016/05/25 10:18, 49.89
2016/05/25 10:38, 49.89
2016/05/25 10:58, 49.88
2016/05/25 11:18, 49.92
2016/05/25 11:38, 49.92
2016/05/25 11:58, 49.92
2016/05/25 12:18, 49.92
2016/05/25 12:38, 49.90
2016/05/25 12:58, 49.93
2016/05/25 13:18, 49.92
2016/05/25 13:38, 49.92
2016/05/25 13:58, 49.92
2016/05/25 14:18, 49.93
2016/05/25 14:38, 49.92
2016/05/25 14:58, 49.92
2016/05/25 15:18, 49.93
2016/05/25 15:38, 49.93
2016/05/25 15:58, 49.93
2016/05/25 16:18, 49.92
2016/05/25 16:38, 49.91
2016/05/25 16:58, 49.91
2016/05/25 17:18, 49.92
2016/05/25 17:38, 49.93
2016/05/25 17:58, 49.92
2016/05/25 18:18, 49.91
2016/05/25 18:38, 49.91
2016/05/25 18:58, 49.92
2016/05/25 19:18, 49.92
2016/05/25 19:38, 49.92
2016/05/25 19:58, 49.91
2016/05/25 20:18, 49.90
2016/05/25 20:38, 49.89
2016/05/25 20:58, 49.92
2016/05/25 21:18, 49.90
2016/05/25 21:38, 49.91
2016/05/25 21:58, 49.90
2016/05/25 22:18, 49.90
2016/05/25 22:38, 49.90
2016/05/25 22:58, 49.91
2016/05/25 23:18, 49.90
2016/05/25 23:38, 49.88
2016/05/25 23:58, 49.88
2016/05/26 00:18, 49.88
2016/05/26 00:38, 49.89
2016/05/26 00:58, 49.89
2016/05/26 01:18, 49.90
2016/05/26 01:38, 49.89
2016/05/26 01:58, 49.89
2016/05/26 02:18, 49.90
2016/05/26 02:38, 49.89
2016/05/26 02:58, 49.89
2016/05/26 03:18, 49.90
2016/05/26 03:38, 49.90
2016/05/26 03:58, 49.89
2016/05/26 04:18, 49.90
2016/05/26 04:38, 49.90
2016/05/26 04:58, 49.89
2016/05/26 05:18, 49.90
2016/05/26 05:38, 49.89
2016/05/26 05:58, 49.89
2016/05/26 06:18, 49.90
2016/05/26 06:38, 49.89
2016/05/26 06:58, 49.90
2016/05/26 07:18, 49.89
2016/05/26 07:38, 49.90
2016/05/26 07:58, 49.89
2016/05/26 08:18, 49.90
2016/05/26 08:38, 49.89
2016/05/26 08:58, 49.90
2016/05/26 09:18, 49.89
2016/05/26 09:38, 49.89
2016/05/26 09:58, 49.90
2016/05/26 10:18, 49.90
2016/05/26 10:38, 49.89
2016/05/26 10:58, 49.89
2016/05/26 11:18, 49.89
2016/05/26 11:38, 49.89
2016/05/26 11:58, 49.89
2016/05/26 12:18, 49.89
2016/05/26 12:38, 49.88
2016/05/26 12:58, 49.88
2016/05/26 13:18, 49.93
2016/05/26 13:38, 49.94
2016/05/26 13:58, 49.92
2016/05/26 14:18, 49.93
2016/05/26 14:38, 49.92
2016/05/26 14:58, 49.92
2016/05/26 15:18, 49.93
2016/05/26 15:38, 49.93
2016/05/26 15:58, 49.92
2016/05/26 16:18, 49.93
2016/05/26 16:38, 49.92
2016/05/26 16:58, 49.93
2016/05/26 17:18, 49.93
2016/05/26 17:38, 49.92
2016/05/26 17:58, 49.92
2016/05/26 18:18, 49.92
2016/05/26 18:38, 49.90
2016/05/26 18:58, 49.92
2016/05/26 19:18, 49.92
2016/05/26 19:38, 49.92
2016/05/26 19:58, 49.91
2016/05/26 20:18, 49.91
2016/05/26 20:38, 49.90
2016/05/26 20:58, 49.91
2016/05/26 21:18, 49.89
2016/05/26 21:38, 49.88
2016/05/26 21:58, 49.89
2016/05/26 22:18, 49.91
2016/05/26 22:38, 49.89
2016/05/26 22:58, 49.89
2016/05/26 23:18, 49.90
2016/05/26 23:38, 49.90
2016/05/26 23:58, 49.90
2016/05/27 00:18, 49.88
2016/05/27 00:38, 49.89
2016/05/27 00:58, 49.88
2016/05/27 01:18, 49.89
2016/05/27 01:38, 49.89
2016/05/27 01:58, 49.89
2016/05/27 02:18, 49.89
2016/05/27 02:38, 49.88
2016/05/27 02:58, 49.89
2016/05/27 03:18, 49.90
2016/05/27 03:38, 49.89
2016/05/27 03:58, 49.90
2016/05/27 04:18, 49.89
2016/05/27 04:38, 49.89
2016/05/27 04:58, 49.89
2016/05/27 05:18, 49.89
2016/05/27 05:38, 49.89
2016/05/27 05:58, 49.89
2016/05/27 06:18, 49.89
2016/05/27 06:38, 49.89
2016/05/27 06:58, 49.88
2016/05/27 07:18, 49.88
2016/05/27 07:38, 49.90
2016/05/27 07:58, 49.89
2016/05/27 08:18, 49.90
2016/05/27 08:38, 49.89
2016/05/27 08:58, 49.89
2016/05/27 09:18, 49.89
2016/05/27 09:38, 49.89
2016/05/27 09:58, 49.89
2016/05/27 10:18, 49.90
2016/05/27 10:38, 49.90
2016/05/27 10:58, 49.89
2016/05/27 11:18, 49.89
2016/05/27 11:38, 49.89
2016/05/27 11:58, 49.89
2016/05/27 12:18, 49.89
2016/05/27 12:38, 49.89
2016/05/27 12:58, 49.91
2016/05/27 13:18, 49.89
2016/05/27 13:38, 49.92
2016/05/27 13:58, 49.93
2016/05/27 14:18, 49.92
2016/05/27 14:38, 49.92
2016/05/27 14:58, 49.93
2016/05/27 15:18, 49.93
2016/05/27 15:38, 49.92
2016/05/27 15:58, 49.93
2016/05/27 16:18, 49.92
2016/05/27 16:38, 49.92
2016/05/27 16:58, 49.92
2016/05/27 17:18, 49.91
2016/05/27 17:38, 49.92
2016/05/27 17:58, 49.92
2016/05/27 18:18, 49.91
2016/05/27 18:38, 49.91
2016/05/27 18:58, 49.92
2016/05/27 19:18, 49.92
2016/05/27 19:38, 49.92
2016/05/27 19:58, 49.91
2016/05/27 20:18, 49.91
2016/05/27 20:38, 49.90
2016/05/27 20:58, 49.92
2016/05/27 21:18, 49.92
2016/05/27 21:38, 49.91
2016/05/27 21:58, 49.90
2016/05/27 22:18, 49.89
2016/05/27 22:38, 49.89
2016/05/27 22:58, 49.89
2016/05/27 23:18, 49.89
2016/05/27 23:38, 49.90
2016/05/27 23:58, 49.89
2016/05/28 00:18, 49.89
2016/05/28 00:38, 49.89
2016/05/28 00:58, 49.89
2016/05/28 01:18, 49.90
2016/05/28 01:38, 49.89
2016/05/28 01:58, 49.90
2016/05/28 02:18, 49.88
2016/05/28 02:38, 49.89
2016/05/28 02:58, 49.89
2016/05/28 03:18, 49.89
2016/05/28 03:38, 49.89
2016/05/28 03:58, 49.89
2016/05/28 04:18, 49.89
2016/05/28 04:38, 49.89
2016/05/28 04:58, 49.89
2016/05/28 05:18, 49.88
2016/05/28 05:38, 49.89
2016/05/28 05:58, 49.89
2016/05/28 06:18, 49.89
2016/05/28 06:38, 49.89
2016/05/28 06:58, 49.90
2016/05/28 07:18, 49.89
2016/05/28 07:38, 49.91
2016/05/28 07:58, 49.89
2016/05/28 08:18, 49.89
2016/05/28 08:38, 49.89
2016/05/28 08:58, 49.89
2016/05/28 09:18, 49.90
2016/05/28 09:38, 49.90
2016/05/28 09:58, 49.89
2016/05/28 10:18, 49.90
2016/05/28 10:38, 49.90
2016/05/28 10:58, 49.89
2016/05/28 11:18, 49.89
2016/05/28 11:38, 49.93
2016/05/28 11:58, 49.92
2016/05/28 12:18, 49.92
2016/05/28 12:38, 49.90
2016/05/28 12:58, 49.93
2016/05/28 13:18, 49.90
2016/05/28 13:38, 49.92
2016/05/28 13:58, 49.88
2016/05/28 14:18, 49.91
2016/05/28 14:38, 49.90
2016/05/28 14:58, 49.92
2016/05/28 15:18, 49.92
2016/05/28 15:38, 49.89
2016/05/28 15:58, 49.89
2016/05/28 16:18, 49.88
2016/05/28 16:38, 49.89
2016/05/28 16:58, 49.91
2016/05/28 17:18, 49.90
2016/05/28 17:38, 49.92
2016/05/28 17:58, 49.92
2016/05/28 18:18, 49.91
2016/05/28 18:38, 49.88
2016/05/28 18:58, 49.91
2016/05/28 19:18, 49.90
2016/05/28 19:38, 49.90
2016/05/28 19:58, 49.90
2016/05/28 20:18, 49.90
2016/05/28 20:38, 49.90
2016/05/28 20:58, 49.91
2016/05/28 21:18, 49.91
2016/05/28 21:38, 49.90
2016/05/28 21:58, 49.91
2016/05/28 22:18, 49.91
2016/05/28 22:38, 49.90
2016/05/28 22:58, 49.92
2016/05/28 23:18, 49.92
2016/05/28 23:38, 49.92
2016/05/28 23:58, 49.88
2016/05/29 00:18, 49.89
2016/05/29 00:38, 49.89
2016/05/29 00:58, 49.90
2016/05/29 01:18, 49.88
2016/05/29 01:38, 49.90
2016/05/29 01:58, 49.89
2016/05/29 02:18, 49.90
2016/05/29 02:38, 49.89
2016/05/29 02:58, 49.89
2016/05/29 03:18, 49.90
2016/05/29 03:38, 49.89
2016/05/29 03:58, 49.89
2016/05/29 04:18, 49.88
2016/05/29 04:38, 49.89
2016/05/29 04:58, 49.89
2016/05/29 05:18, 49.89
2016/05/29 05:38, 49.88
2016/05/29 05:58, 49.89
2016/05/29 06:18, 49.89
2016/05/29 06:38, 49.90
2016/05/29 06:58, 49.89
2016/05/29 07:18, 49.89
2016/05/29 07:38, 49.89
2016/05/29 07:58, 49.89
2016/05/29 08:18, 49.89
2016/05/29 08:38, 49.90
2016/05/29 08:58, 49.89
2016/05/29 09:18, 49.89
2016/05/29 09:38, 49.89
2016/05/29 09:58, 49.89
2016/05/29 10:18, 49.89
2016/05/29 10:38, 49.89
2016/05/29 10:58, 49.89
2016/05/29 11:18, 49.88
2016/05/29 11:38, 49.88
2016/05/29 11:58, 49.89
2016/05/29 12:18, 49.89
2016/05/29 12:38, 49.88
2016/05/29 12:58, 49.93
2016/05/29 13:18, 49.93
2016/05/29 13:38, 49.93
2016/05/29 13:58, 49.92
2016/05/29 14:18, 49.92
2016/05/29 14:38, 49.91
2016/05/29 14:58, 49.93
2016/05/29 15:18, 49.92
2016/05/29 15:38, 49.93
2016/05/29 15:58, 49.92
2016/05/29 16:18, 49.93
2016/05/29 16:38, 49.90
2016/05/29 16:58, 49.92
2016/05/29 17:18, 49.92
2016/05/29 17:38, 49.91
2016/05/29 17:58, 49.92
2016/05/29 18:18, 49.91
2016/05/29 18:38, 49.90
2016/05/29 18:58, 49.91
2016/05/29 19:18, 49.91
2016/05/29 19:38, 49.91
2016/05/29 19:58, 49.92
2016/05/29 20:18, 49.90
2016/05/29 20:38, 49.90
2016/05/29 20:58, 49.90
2016/05/29 21:18, 49.89
2016/05/29 21:38, 49.88
2016/05/29 21:58, 49.87
2016/05/29 22:18, 49.91
2016/05/29 22:38, 49.87
2016/05/29 22:58, 49.91
2016/05/29 23:18, 49.90
2016/05/29 23:38, 49.90
2016/05/29 23:58, 49.90
2016/05/30 00:18, 49.90
2016/05/30 00:38, 49.88
2016/05/30 00:58, 49.88
2016/05/30 01:18, 49.88
2016/05/30 01:38, 49.88
2016/05/30 01:58, 49.88
2016/05/30 02:18, 49.88
2016/05/30 02:38, 49.88
2016/05/30 02:58, 49.89
2016/05/30 03:18, 49.89
2016/05/30 03:38, 49.89
2016/05/30 03:58, 49.89
2016/05/30 04:18, 49.88
2016/05/30 04:38, 49.89
2016/05/30 04:58, 49.89
2016/05/30 05:18, 49.90
2016/05/30 05:38, 49.89
2016/05/30 05:58, 49.88
2016/05/30 06:18, 49.89
2016/05/30 06:38, 49.88
2016/05/30 06:58, 49.88
2016/05/30 07:18, 49.88
2016/05/30 07:38, 49.88
2016/05/30 07:58, 49.89
2016/05/30 08:18, 49.88
2016/05/30 08:38, 49.88
2016/05/30 08:58, 49.88
2016/05/30 09:18, 49.89
2016/05/30 09:38, 49.88
2016/05/30 09:58, 49.88
2016/05/30 10:18, 49.88
2016/05/30 10:38, 49.88
2016/05/30 10:58, 49.92
2016/05/30 11:18, 49.93
2016/05/30 11:38, 49.92
2016/05/30 11:58, 49.92
2016/05/30 12:18, 49.92
2016/05/30 12:38, 49.90
2016/05/30 12:58, 49.91
2016/05/30 13:18, 49.91
2016/05/30 13:38, 49.92
2016/05/30 13:58, 49.92
2016/05/30 14:18, 49.91
2016/05/30 14:38, 49.90
2016/05/30 14:58, 49.91
2016/05/30 15:18, 49.91
2016/05/30 15:38, 49.91
2016/05/30 15:58, 49.91
2016/05/30 16:18, 49.90
2016/05/30 16:38, 49.87
2016/05/30 16:58, 49.89
2016/05/30 17:18, 49.91
2016/05/30 17:38, 49.92
2016/05/30 17:58, 49.91
2016/05/30 18:18, 49.90
2016/05/30 18:38, 49.89
2016/05/30 18:58, 49.91
2016/05/30 19:18, 49.92
2016/05/30 19:38, 49.89
2016/05/30 19:58, 49.92
2016/05/30 20:18, 49.90
2016/05/30 20:38, 49.89
2016/05/30 20:58, 49.90
2016/05/30 21:18, 49.89
2016/05/30 21:38, 49.90
2016/05/30 21:58, 49.91
2016/05/30 22:18, 49.90
2016/05/30 22:38, 49.89
2016/05/30 22:58, 49.90
2016/05/30 23:18, 49.90
2016/05/30 23:38, 49.90
2016/05/30 23:58, 49.90
2016/05/31 00:18, 49.89
2016/05/31 00:38, 49.88
2016/05/31 00:58, 49.88
2016/05/31 01:18, 49.88
2016/05/31 01:38, 49.89
2016/05/31 01:58, 49.88
2016/05/31 02:18, 49.89
2016/05/31 02:38, 49.88
2016/05/31 02:58, 49.89
2016/05/31 03:18, 49.90
2016/05/31 03:38, 49.88
2016/05/31 03:58, 49.89
2016/05/31 04:18, 49.89
2016/05/31 04:38, 49.89
2016/05/31 04:58, 49.89
2016/05/31 05:18, 49.89
2016/05/31 05:38, 49.90
2016/05/31 05:58, 49.88
2016/05/31 06:18, 49.88
2016/05/31 06:38, 49.88
2016/05/31 06:58, 49.88
2016/05/31 07:18, 49.88
2016/05/31 07:38, 49.89
2016/05/31 07:58, 49.89
2016/05/31 08:18, 49.88
2016/05/31 08:38, 49.88
2016/05/31 08:58, 49.89
2016/05/31 09:18, 49.88
2016/05/31 09:38, 49.89
2016/05/31 09:58, 49.89
2016/05/31 10:18, 49.88
2016/05/31 10:38, 49.88
2016/05/31 10:58, 49.93
2016/05/31 11:18, 49.92
2016/05/31 11:38, 49.92
2016/05/31 11:58, 49.93
2016/05/31 12:18, 49.92
2016/05/31 12:38, 49.91
2016/05/31 12:58, 49.93
2016/05/31 13:18, 49.92
2016/05/31 13:38, 49.93
2016/05/31 13:58, 49.92
2016/05/31 14:18, 49.93
2016/05/31 14:38, 49.92
2016/05/31 14:58, 49.93
2016/05/31 15:18, 49.93
2016/05/31 15:38, 49.93
2016/05/31 15:58, 49.93
2016/05/31 16:18, 49.92
2016/05/31 16:38, 49.90
2016/05/31 16:58, 49.92
2016/05/31 17:18, 49.92
2016/05/31 17:38, 49.92
2016/05/31 17:58, 49.91
2016/05/31 18:18, 49.93
2016/05/31 18:38, 49.90
2016/05/31 18:58, 49.92
2016/05/31 19:18, 49.91
2016/05/31 19:38, 49.92
2016/05/31 19:58, 49.92
2016/05/31 20:18, 49.92
2016/05/31 20:38, 49.92
2016/05/31 20:58, 49.93
2016/05/31 21:18, 49.91
2016/05/31 21:38, 49.91
2016/05/31 21:58, 49.91
2016/05/31 22:18, 49.91
2016/05/31 22:38, 49.90
2016/05/31 22:58, 49.92
2016/05/31 23:18, 49.91
2016/05/31 23:38, 49.89
2016/05/31 23:58, 49.89
2016/06/01 00:18, 49.89
2016/06/01 00:38, 49.87
2016/06/01 00:58, 49.88
2016/06/01 01:18, 49.89
2016/06/01 01:38, 49.92
2016/06/01 01:58, 49.93
2016/06/01 02:18, 49.94
2016/06/01 02:38, 49.92
2016/06/01 02:58, 49.91
2016/06/01 03:18, 49.92
2016/06/01 03:38, 49.91
2016/06/01 03:58, 49.91
2016/06/01 04:18, 49.94
2016/06/01 04:38, 49.93
2016/06/01 04:58, 49.92
2016/06/01 05:18, 49.91
2016/06/01 05:38, 49.90
2016/06/01 05:58, 49.91
2016/06/01 06:18, 49.92
2016/06/01 06:38, 49.91
2016/06/01 06:58, 49.90
2016/06/01 07:18, 49.90
2016/06/01 07:38, 49.90
2016/06/01 07:58, 49.91
2016/06/01 08:18, 49.91
2016/06/01 08:38, 49.91
2016/06/01 08:58, 49.91
2016/06/01 09:18, 49.90
2016/06/01 09:38, 49.92
2016/06/01 09:58, 49.92
2016/06/01 10:18, 49.92
2016/06/01 10:38, 49.90
2016/06/01 10:58, 49.90
2016/06/01 11:18, 49.93
2016/06/01 11:38, 49.89
2016/06/01 11:58, 49.89
2016/06/01 12:18, 49.89
2016/06/01 12:38, 49.89
2016/06/01 12:58, 49.89